Location: Elk Horn Observatory
(36.6768°N, 80.8309°W)
Time: 16:29:56
(UTC-05:00)

Envisat - Pass Details

Date: 25 January 2019
Orbit: 764 x 766 km, 98.2° (Epoch: 22 February)

Event Time Altitude Azimuth Distance (km) Brightness Sun altitude
Rises 18:14:55 0° 136° (SE) 3,219 6.0 -7.1°
Reaches altitude 10° 18:17:31 10° 124° (ESE) 2,297 5.1 -7.6°
Maximum altitude 18:21:41 26° 68° (ENE) 1,465 3.9 -8.4°
Drops below altitude 10° 18:25:51 10° 13° (NNE) 2,308 5.2 -9.2°
Sets 18:28:28 0° 1° (N) 3,238 6.1 -9.7°
